[[{"header":{"parameterUnit":"m.s-1","parameterCategory":1,"la1":30.2991,"la2":30.254,"lo1":-89.0895,"lo2":-89.0444,"dy":0.0017,"dx":0.0017,"nx":28,"ny":28,"refTime":"2025-01-15T09:00:00:Z","depth":0,"parameterNumber":2,"parameterNumberName":"U-component_of_WINDS"},"data":[0,0,0,0,0,0,0,0,0,0,0,0,0,0,0,0,0,0,0,0,0,0,0,0,0,0,0,0,0,0,0,0,0,0,0,0,0,0,0,0,0,0,0,0,0,0,0,0,0,0,0,0,0,0,0,0,0,0,1.5485,1.5486,0,1.5565,1.5566,1.5567,1.5557,1.5556,1.5555,1.5553,1.5639,1.5643,1.5646,0,0,0,0,0,0,0,0,0,0,0,0,0,1.5327,1.533,1.5485,1.5486,1.5487,1.5565,1.5566,1.5567,1.5557,1.5556,1.5554,1.5553,1.5638,1.5642,1.5647,0,0,0,0,0,0,0,0,0,0,0,0,0,1.54,1.5331,1.5485,1.5491,1.5493,1.5564,1.5566,1.5567,1.5558,1.5556,1.5554,1.5552,1.5637,1.5642,1.5647,1.5718,0,0,1.5663,1.5665,0,0,0,0,0,0,0,0,1.5396,1.5406,1.5489,1.5491,1.5493,1.5549,1.5542,1.5618,1.5558,1.5533,1.5553,1.5551,1.5611,1.5618,1.5638,1.5723,1.5726,1.5664,1.5667,1.5669,1.5671,0,0,0,0,0,0,0,1.5391,1.5403,1.5517,1.5491,1.5493,1.5492,1.55,1.5556,1.5582,1.5535,1.5535,1.5544,1.5612,1.5633,1.564,1.5727,1.5663,1.5668,1.5671,1.5673,1.5874,1.5876,0,0,0,0,0,0,1.5384,1.5399,1.5514,1.5519,1.5439,1.5496,1.5505,1.5533,1.5582,1.5587,1.5546,1.5543,1.5625,1.5634,1.5643,1.5729,1.5669,1.5674,1.5677,1.5872,1.5875,1.5877,0,0,0,0,0,0,1.5381,1.5394,1.5511,1.5459,1.5473,1.5501,1.5532,1.5536,1.5556,1.5589,1.5594,1.5562,1.5624,1.5635,1.5699,1.5732,1.5676,1.5681,1.587,1.5873,1.5876,1.5902,0,0,0,0,0,0,1.5376,1.5393,1.542,1.5459,1.5476,1.5565,1.5534,1.5538,1.5565,1.5563,1.5606,1.5612,1.5623,1.5691,1.5704,1.5738,1.5685,1.5867,1.5871,1.5875,1.5898,1.5906,1.5912,0,0,0,0,0,1.5371,1.5425,1.5421,1.5435,1.551,1.5567,1.5577,1.5587,1.5568,1.5595,1.5616,1.561,1.5726,1.5698,1.5713,1.5748,1.5865,1.587,1.5875,1.5895,1.5904,1.5912,0,0,0,0,0,0,1.539,1.543,1.5427,1.5495,1.5527,1.5565,1.56,1.5597,1.5637,1.5633,1.5646,1.5656,1.572,1.5741,1.5709,1.582,1.5793,1.5801,1.5804,1.5812,1.5819,1.5813,1.569,0,0,0,0,0,1.5402,1.5444,1.5477,1.5535,1.5551,1.5573,1.5598,1.5603,1.5638,1.5652,1.5678,1.5713,1.5757,1.5786,1.5829,1.5901,1.5911,1.5933,1.594,1.5945,1.5952,1.5992,1.6002,1.5893,1.5893,1.5893,0,0,1.5428,1.5455,1.5481,1.5539,1.5565,1.5609,1.5584,1.5632,1.5665,1.566,1.5721,1.5741,1.5781,1.585,1.5881,1.5869,1.5984,1.5952,1.5956,1.596,1.5998,1.6008,1.6017,1.5897,1.5896,1.5896,0,0,1.5497,1.5522,1.5572,1.5598,1.5636,1.565,1.5662,1.5701,1.5713,1.5775,1.5771,1.5812,1.5888,1.5916,1.594,1.602,1.6015,1.6033,1.6069,1.6107,1.6116,1.6124,1.6151,1.6161,1.604,1.604,1.604,0,1.5525,1.559,1.5599,1.5646,1.5672,1.5668,1.5719,1.5744,1.5795,1.5814,1.5799,1.5893,1.592,1.5995,1.6014,1.6034,1.6048,1.6028,1.6114,1.6121,1.6129,1.6155,1.6166,1.6042,1.6042,1.6042,1.6041,0,1.5621,1.5666,1.5702,1.575,1.578,1.5829,1.5846,1.5876,1.5879,1.5895,1.5957,1.5989,1.6037,1.6056,1.606,1.6131,1.6122,1.611,1.6084,1.6141,1.6166,1.6176,1.6045,1.6044,1.6043,1.6043,0,0,1.5706,1.5756,1.577,1.5791,1.5833,1.5868,1.5918,1.5963,1.5988,1.6024,1.6066,1.613,1.6119,1.6147,1.6154,1.6188,1.6248,1.6172,1.6173,1.6184,1.6328,1.6336,1.6347,1.6245,1.6247,1.6249,1.6324,0,1.5778,1.5864,1.5873,1.595,1.5991,1.5988,1.6031,1.6062,1.6078,1.6116,1.6135,1.618,1.6162,1.6179,1.6212,1.6233,1.6276,1.6228,1.6285,1.6287,1.6274,1.6361,1.6369,1.6439,1.6334,1.6336,1.6337,0,1.5875,1.5911,1.5991,1.6026,1.6044,1.6083,1.6125,1.6162,1.6197,1.6207,1.6237,1.6239,1.6291,1.6263,1.6334,1.6301,1.6325,1.6339,1.6342,1.6347,1.6315,1.6368,1.6461,1.6471,1.6353,1.6351,1.635,0,1.5927,1.5996,1.6053,1.6071,1.6114,1.6141,1.6161,1.6194,1.622,1.6258,1.6276,1.632,1.6344,1.6378,1.6393,1.6371,1.6464,1.6437,1.6473,1.6473,1.6493,1.6491,1.6591,1.6509,1.6509,1.6509,1.6509,0,1.6007,1.6056,1.6077,1.6112,1.6167,1.6177,1.6232,1.6251,1.628,1.6319,1.632,1.6357,1.6374,1.6414,1.6426,1.6483,1.6494,1.6504,1.6506,1.6503,1.6502,1.6519,1.6514,1.6512,1.6511,1.651,1.651,0,1.6075,1.6091,1.6152,1.6187,1.6197,1.6236,1.6266,1.6301,1.6316,1.6365,1.6378,1.6403,1.6449,1.6467,1.6525,1.6533,1.6599,1.6598,1.6587,1.6587,1.6623,1.6619,1.6736,1.6752,1.6661,1.6661,1.6662,0,1.6125,1.6162,1.62,1.6226,1.6245,1.6287,1.6313,1.6326,1.6354,1.6396,1.6425,1.6472,1.6509,1.6585,1.6609,1.6653,1.6653,1.6691,1.6659,1.6655,1.6653,1.665,1.6653,1.6696,1.6697,1.6698,1.6699,0,1.6211,1.6217,1.6254,1.6295,1.6326,1.6359,1.6391,1.6412,1.643,1.6461,1.6508,1.6537,1.6595,1.6642,1.6687,1.6708,1.6707,1.6708,1.6719,1.6716,1.6708,1.6712,1.6602,1.6706,1.6705,1.6704,1.6704,1.6704,1.6271,1.6304,1.6335,1.6377,1.6402,1.6432,1.6465,1.6484,1.6523,1.657,1.6575,1.6626,1.666,1.672,1.6744,1.6784,1.6774,1.679,1.6794,1.6797,1.6799,1.6701,1.6792,1.6792,1.6792,1.6792,1.6792,0,1.6357,1.6377,1.6415,1.6459,1.6492,1.6486,1.6521,1.6549,1.6593,1.6625,1.6661,1.6715,1.6759,1.6786,1.6831,1.6858,1.6859,1.687,1.6868,1.6873,1.6806,1.6792,1.6869,1.6869,1.6869,1.6869,1.6869,1.6869,1.6405,1.646,1.6469,1.6536,1.6556,1.6604,1.6625,1.6652,1.6677,1.6737,1.6773,1.679,1.6819,1.6866,1.6907,1.6914,1.693,1.6942,1.6948,1.6885,1.6877,1.687,1.6856,1.6946,1.6946,1.7011,1.7012,1.7012]},{"header":{"parameterUnit":"m.s-1","parameterCategory":1,"la1":30.2991,"la2":30.254,"lo1":-89.0895,"lo2":-89.0444,"dy":0.0017,"dx":0.0017,"nx":28,"ny":28,"refTime":"2025-01-15T09:00:00:Z","depth":0,"parameterNumber":3,"parameterNumberName":"V-component_of_WINDS"},"data":[0,0,0,0,0,0,0,0,0,0,0,0,0,0,0,0,0,0,0,0,0,0,0,0,0,0,0,0,0,0,0,0,0,0,0,0,0,0,0,0,0,0,0,0,0,0,0,0,0,0,0,0,0,0,0,0,0,0,0.8893,0.8892,0,0.8804,0.8803,0.8802,0.878,0.8781,0.8782,0.8782,0.8684,0.8681,0.8678,0,0,0,0,0,0,0,0,0,0,0,0,0,0.9037,0.9035,0.8894,0.8892,0.8891,0.8804,0.8803,0.8802,0.878,0.8781,0.8782,0.8782,0.8685,0.8681,0.8678,0,0,0,0,0,0,0,0,0,0,0,0,0,0.8964,0.9034,0.8894,0.887,0.8867,0.8804,0.8803,0.8801,0.878,0.8781,0.8782,0.8783,0.8686,0.8682,0.8677,0.8629,0,0,0.8663,0.866,0,0,0,0,0,0,0,0,0.8968,0.8959,0.8875,0.8872,0.8868,0.8804,0.8818,0.8743,0.878,0.8813,0.8782,0.8783,0.8723,0.8715,0.8696,0.8625,0.8621,0.8662,0.8659,0.8657,0.8656,0,0,0,0,0,0,0,0.8973,0.8962,0.8858,0.8874,0.887,0.8861,0.8852,0.8804,0.8764,0.881,0.8808,0.8798,0.8721,0.8701,0.8694,0.8619,0.8662,0.8658,0.8655,0.8653,0.8499,0.8498,0,0,0,0,0,0,0.8984,0.8967,0.8861,0.8855,0.8922,0.8858,0.8848,0.8824,0.8764,0.8756,0.8798,0.8798,0.8709,0.8699,0.869,0.8628,0.8657,0.8653,0.865,0.8501,0.8499,0.8498,0,0,0,0,0,0,0.8987,0.8974,0.8864,0.891,0.8896,0.8855,0.8828,0.8822,0.8801,0.8755,0.8747,0.8785,0.8709,0.8697,0.8644,0.8624,0.8651,0.8646,0.8502,0.85,0.8498,0.8504,0,0,0,0,0,0,0.8991,0.8976,0.8959,0.891,0.8894,0.8822,0.8827,0.8819,0.8794,0.8793,0.8741,0.8733,0.8709,0.8651,0.8639,0.8618,0.8643,0.8504,0.8501,0.8499,0.8505,0.8502,0.85,0,0,0,0,0,0.8996,0.8964,0.8959,0.8946,0.8873,0.8821,0.8811,0.8786,0.8793,0.8774,0.8744,0.8734,0.8629,0.8646,0.8633,0.8609,0.8505,0.8502,0.8499,0.8506,0.8503,0.85,0,0,0,0,0,0,0.901,0.8957,0.8951,0.8902,0.8867,0.8818,0.8794,0.8784,0.8744,0.8745,0.8714,0.8702,0.865,0.8624,0.8645,0.8558,0.8566,0.8561,0.8576,0.8573,0.857,0.8577,0.8639,0,0,0,0,0,0.9008,0.8973,0.8928,0.8889,0.8872,0.8836,0.8813,0.8796,0.8757,0.8742,0.8707,0.8668,0.8625,0.8598,0.8556,0.8502,0.8488,0.8478,0.8476,0.8474,0.8469,0.8434,0.8428,0.8489,0.8489,0.8489,0,0,0.9002,0.8969,0.8949,0.8891,0.8861,0.8823,0.8823,0.8784,0.8754,0.8735,0.8683,0.8656,0.8609,0.8555,0.8529,0.8532,0.8449,0.847,0.8469,0.8465,0.843,0.8425,0.842,0.8487,0.8487,0.8487,0,0,0.8972,0.8945,0.8908,0.8878,0.8834,0.881,0.8801,0.8753,0.8735,0.8683,0.8667,0.8629,0.8558,0.8524,0.8498,0.8451,0.844,0.8439,0.8424,0.839,0.8386,0.8381,0.8361,0.8355,0.8434,0.8434,0.8434,0,0.897,0.8914,0.889,0.885,0.8823,0.8806,0.8766,0.8738,0.8681,0.8662,0.8666,0.8574,0.8542,0.8477,0.8465,0.8446,0.8431,0.8444,0.8389,0.8384,0.8379,0.836,0.8353,0.8434,0.8434,0.8434,0.8434,0,0.8912,0.8873,0.8848,0.8795,0.8766,0.8726,0.8693,0.8666,0.8651,0.8626,0.857,0.853,0.8479,0.8462,0.8448,0.8394,0.8397,0.8396,0.8403,0.8374,0.8355,0.8348,0.8434,0.8434,0.8434,0.8434,0,0,0.8889,0.8822,0.8813,0.8787,0.8735,0.8703,0.8661,0.8612,0.8588,0.8548,0.851,0.8448,0.8446,0.8416,0.8397,0.8368,0.8329,0.8369,0.8367,0.836,0.8263,0.8263,0.8255,0.8322,0.832,0.8319,0.8266,0,0.885,0.8777,0.8753,0.869,0.8652,0.8633,0.8596,0.8558,0.8532,0.8493,0.8464,0.842,0.8422,0.8403,0.8373,0.834,0.8308,0.8344,0.8282,0.828,0.8292,0.8245,0.8246,0.8198,0.8259,0.8257,0.8257,0,0.8796,0.8757,0.8691,0.8641,0.8624,0.8591,0.8542,0.8507,0.8462,0.8445,0.841,0.8393,0.8344,0.8356,0.8286,0.831,0.8283,0.8263,0.826,0.8252,0.8265,0.8233,0.8182,0.8174,0.8245,0.8246,0.8247,0,0.8782,0.8713,0.8663,0.8642,0.8584,0.856,0.8534,0.8491,0.8462,0.8419,0.8398,0.835,0.8322,0.8283,0.8251,0.8263,0.8182,0.8192,0.8164,0.8164,0.8146,0.8148,0.8088,0.8133,0.8133,0.8133,0.8134,0,0.8741,0.87,0.8656,0.8626,0.8578,0.8549,0.8502,0.8475,0.8436,0.8397,0.8377,0.8341,0.8302,0.8259,0.8234,0.8178,0.8166,0.8148,0.8141,0.8149,0.815,0.8129,0.813,0.8132,0.8132,0.8132,0.8133,0,0.8717,0.8687,0.8631,0.858,0.8566,0.8533,0.8487,0.8455,0.8428,0.8379,0.8365,0.8322,0.827,0.8235,0.8168,0.8151,0.8089,0.8084,0.8104,0.81,0.8073,0.8075,0.7995,0.7981,0.8039,0.8038,0.8038,0,0.8692,0.866,0.8605,0.8579,0.8553,0.8511,0.8481,0.8449,0.8418,0.8363,0.8337,0.8284,0.824,0.8157,0.8118,0.8066,0.8057,0.8033,0.8049,0.8056,0.8053,0.8054,0.8049,0.803,0.8029,0.8029,0.8029,0,0.8649,0.8635,0.8594,0.8546,0.8511,0.8472,0.8432,0.8411,0.8372,0.8337,0.8285,0.8251,0.8182,0.8128,0.8072,0.8042,0.8027,0.8024,0.8014,0.802,0.8032,0.8022,0.8094,0.8026,0.8026,0.8026,0.8026,0.8027,0.8622,0.8591,0.8547,0.8501,0.8468,0.843,0.8397,0.8365,0.8321,0.8264,0.8248,0.8192,0.8144,0.8067,0.8035,0.7989,0.799,0.7977,0.7973,0.7969,0.7968,0.8041,0.7979,0.7979,0.7979,0.7979,0.7979,0,0.8575,0.8546,0.8503,0.8448,0.8411,0.8403,0.8357,0.8325,0.8277,0.8235,0.8191,0.8129,0.8076,0.8031,0.7976,0.7946,0.7938,0.7933,0.7933,0.7925,0.7971,0.7984,0.794,0.794,0.794,0.794,0.794,0.794,0.8547,0.8494,0.8474,0.8403,0.8372,0.8319,0.8293,0.8257,0.8222,0.8154,0.811,0.8082,0.8037,0.7978,0.7927,0.7915,0.7894,0.7889,0.7875,0.7918,0.7923,0.7927,0.7939,0.7886,0.7886,0.7833,0.7833,0.7832]}]]